Weather Roundup
Issued by NWS

Home | Current Version | Previous Version | Graphics & Text | Print | Product List | Glossary Off
Versions: 1 2 3 4 5 6 7 8 9 10 11 12 13 14 15 16 17 18 19 20 21 22 23 24 25 26 27 28 29 30 31 32 33 34 35 36 37 38 39 40 41 42 43 44 45 46 47 48 49 50

000
NZUS93 KARX 231510
HRRWXR

CURRENT HOURLY OBSERVATIONS ACROSS
MUCH OF THE UPPER MISSISSIPPI VALLEY
NATIONAL WEATHER SERVICE LA CROSSE WI
1000 AM CDT WED APR 23 2014


...SOUTHEAST MINNESOTA...


CITY           SKY/WX    TMP DP  RH WIND       PRES   REMARKS
ROCHESTER      CLOUDY    44  29  55 SE17      30.09F
ROCHESTER/MAYO CLOUDY    43  26  50 SE17G24   30.09F
WINONA         CLOUDY    48  30  49 SE13      30.14F
AUSTIN         CLOUDY    43  30  61 SE12G18   30.08F
ALBERT LEA     CLOUDY    45  30  57 SE18G28   30.06F
DODGE CENTER   CLOUDY    45  30  57 SE20      30.08F
PRESTON        CLOUDY    44  28  55 SE16G22   30.11F
OWATONNA       CLOUDY    45  30  57 SE15G26   30.06F
FARIBAULT      CLOUDY    46  27  46 SE21G28   30.08S
$$

...ELSEWHERE IN MINNESOTA...


CITY           SKY/WX    TMP DP  RH WIND       PRES   REMARKS
MINNEAPOLIS    CLOUDY    45  29  53 SE10      30.09S
INTNL FALLS    PTSUNNY   48  22  35 S12G17    30.06F
DULUTH         CLOUDY    41  25  53 SE8       30.12R
RED WING       CLOUDY    46  27  46 SE10G21   30.10F
REDWOOD FALLS  RAIN      42  37  82 SE18G29   29.98F
MANKATO        CLOUDY    43  30  61 S13       30.08R
WORTHINGTON    CLOUDY    46  30  53 SE25G33   29.91F
FAIRMONT       CLOUDY    45  32  61 SE22      30.01F
$$

...SOUTHWEST WISCONSIN...


CITY           SKY/WX    TMP DP  RH WIND       PRES   REMARKS
LA CROSSE      PTSUNNY   48  28  46 S12       30.15F
PRAIRIE DU CHI CLOUDY    45  28  52 SE9       30.16S
BOSCOBEL       PTSUNNY   47  28  47 S6        30.17F
LONE ROCK      MOSUNNY   46  28  49 SE5       30.17F
PLATTEVILLE    MOSUNNY   44  30  58 SE7       30.17S
FORT MC COY    PTSUNNY   47  25  42 E8        30.16F
CAMP DOUGLAS   PTSUNNY   46  27  46 VRB5      30.17S
VIROQUA        FAIR      44  28  54 SE13      30.14S
WIS DELLS      MOSUNNY   44  26  48 CALM      30.16F
$$

...ELSEWHERE IN WISCONSIN...


CITY           SKY/WX    TMP DP  RH WIND       PRES   REMARKS
MILWAUKEE      MOSUNNY   41  26  55 NE9       30.19S
MADISON        PTSUNNY   45  27  49 VRB5      30.17S
GREEN BAY      MOSUNNY   41  28  60 NE13      30.19S
EAU CLAIRE     CLOUDY    46  26  45 SE12      30.12F
BLACK RVR FLS  FAIR      46  23  39 E9        30.15F
MEDFORD        CLOUDY    41  26  55 SE8       30.15R
WAUSAU         PTSUNNY   42  25  50 SE7       30.14S
WIS RAPIDS     PTSUNNY   45  24  43 VRB3      30.18S
MARSHFIELD     PTSUNNY   45  27  49 SE10      30.15S
RICE LAKE      CLOUDY    43  28  57 SE10      30.14F
$$

...NORTHEAST IOWA...


CITY           SKY/WX    TMP DP  RH WIND       PRES   REMARKS
WATERLOO       LGT RAIN  44  30  57 SE16      30.11F
DUBUQUE        CLOUDY    43  29  57 SE10      30.16S
DECORAH        CLOUDY    43  30  61 SE12      30.12F
MASON CITY     CLOUDY    45  33  63 SE23G29   30.08F
CHARLES CITY   CLOUDY    43  30  61 SE18G28   30.10F
OELWEIN        CLOUDY   N/A N/A N/A SE18      30.13F
$$

...ELSEWHERE IN IOWA...


CITY           SKY/WX    TMP DP  RH WIND       PRES   REMARKS
DES MOINES     CLOUDY    52  32  46 SE14G22   30.05S
IOWA CITY      CLOUDY    45  32  60 SE9       30.18R
FORT DODGE     CLOUDY    50  28  43 SE14G24   30.02F
MARSHALLTOWN   CLOUDY    47  34  60 SE21      30.07F
CEDAR RAPIDS   CLOUDY    45  31  58 SE15      30.14R
$$

...NORTHERN ILLINOIS...


CITY           SKY/WX    TMP DP  RH WIND       PRES   REMARKS
CHICAGO-OHARE  MOSUNNY   44  25  47 E13       30.17F
DUPAGE         SUNNY     44  27  51 E14       30.17S
CHICAGO-MIDWAY MOSUNNY   44  29  55 NE14      30.18S
MOLINE         MOSUNNY   47  30  51 SE13      30.18R
ROCKFORD       MOSUNNY   46  28  49 NE8       30.20R
STERLING       MOSUNNY   46  30  53 E10       30.17F
PEORIA         PTSUNNY   48  30  49 SE6       30.18R
$$

NOTE: "FAIR" INDICATES FEW OR NO CLOUDS BELOW 12,000 FEET WITH NO
SIGNIFICANT WEATHER AND/OR OBSTRUCTIONS TO VISIBILITY. WIND
SPEEDS ARE IN MILES-PER-HOUR.



USA.gov is the U.S. government's official web portal to all federal, state and local government web resources and services.